CAPE
0 0 0 0 0 0 0 0 0 0 0 0 0 0 0 0 0 0 0 3 123 341 1276 2034 1994 2370 2524 2673 3255 3841 3753 4137 3368 3211 2695 2594 2065 2048 1849 2173 3086 3177 2860 3020
0 0 0 0 0 0 0 0 0 0 0 0 0 0 0 0 0 0 0 206 422 858 2242 2146 2112 2276 2637 2742 3270 3632 4022 4140 3234 3173 3149 2885 2628 2192 1929 1959 2879 2987 3100 2762
0 0 0 0 0 0 0 0 0 0 0 0 0 0 0 0 0 0 1 165 690 1321 1749 2012 2032 2401 2338 2826 3205 3621 3992 4184 3863 3852 3612 3588 3398 3267 2569 2371 1828 2302 2736 2506
0 0 0 0 0 0 0 0 0 0 0 0 0 12 27 0 0 3 33 139 247 667 1403 1862 2140 2555 2444 2862 3253 4020 3847 4094 4243 3918 3717 3302 2967 3151 2724 2869 2278 2192 2056 2503
0 0 0 0 0 0 0 0 0 0 0 0 0 0 0 0 0 8 43 23 93 518 432 761 1341 1653 1849 2168 2978 3715 4704 4615 4245 4010 3556 3856 3317 3016 2818 2055 3915 3798 2232 2112
0 0 0 0 0 0 0 0 0 0 0 1 2 0 29 16 5 15 34 11 0 71 600 741 909 1113 1243 896 905 1265 3317 4536 4601 4510 4256 3859 3985 3192 2506 1815 2891 2558 2863 2619
0 0 0 0 0 0 0 0 0 3 4 22 4 0 172 11 15 51 37 14 5 13 401 916 867 934 912 977 1025 1103 2554 3439 4486 4724 4538 4636 4258 4017 3805 3377 3380 2461 1524 2036
0 1 0 0 0 0 0 0 0 0 0 7 0 0 112 20 1 4 15 1 0 19 55 37 274 616 610 634 776 1283 2376 2938 3121 3200 4241 4433 4217 4128 3820 3395 3095 3002 2215 946
0 1 0 0 0 0 0 0 0 0 0 0 3 96 70 10 7 0 0 0 0 13 61 53 5 265 565 746 936 982 1987 2742 3001 3137 3571 4143 4203 4433 3854 3843 3772 3215 2791 2186
0 0 0 0 0 0 0 0 0 0 3 7 26 11 154 86 32 4 0 3 1 0 0 12 116 395 555 704 1176 1307 1547 2365 2457 2414 3092 2946 3662 3906 4219 4198 3946 3554 3045 2858
0 0 0 0 0 0 0 0 0 0 3 1 0 58 176 26 9 0 0 0 0 0 2 66 207 392 801 504 847 1322 1426 2109 2355 2426 2435 3011 3050 3135 3701 3735 4140 3749 3471 3262
0 0 0 0 1 0 0 0 0 0 0 11 3 1 11 0 0 0 0 0 0 46 147 167 345 438 502 904 1004 1095 1640 1744 2195 2462 2541 2289 2384 2446 2599 2988 3307 3233 3349 3164
0 0 0 0 0 0 0 0 0 0 0 0 0 0 9 4 1 3 0 0 191 203 118 207 586 597 767 979 1243 1332 1572 1713 1821 1776 1866 1941 1921 1947 2028 2130 2573 3226 2723 2975
0 0 0 0 0 0 0 5 2 0 0 0 0 3 5 1 0 2 0 26 56 315 243 328 652 950 1093 1240 1367 1423 1717 1527 1662 1663 1480 1795 1825 1726 1715 1836 2143 2385 2894 2736
0 0 0 0 0 0 0 0 0 0 0 0 0 0 0 7 3 0 9 17 29 313 240 389 409 765 1107 1184 1164 1343 1528 1766 1697 1600 1447 1412 1704 1502 1579 1959 1797 1870 2208 2600
0 0 0 0 0 0 0 0 0 0 0 0 0 0 0 41 22 49 56 35 202 201 88 219 220 376 648 994 1285 1180 1508 1541 1468 1430 1430 1505 1475 1654 1550 1528 1575 1406 1699 2073
7 0 0 0 0 0 0 0 0 0 0 0 0 0 2 58 21 3 0 0 25 62 131 413 526 545 836 942 1171 1441 1461 1351 1288 1362 1562 1557 1298 1381 1409 1490 1412 1206 1405 1820
0 0 0 0 0 0 0 0 0 0 0 0 0 0 0 33 0 0 221 55 123 155 332 498 672 812 989 1108 1273 1513 1396 1204 1114 1262 1274 1275 1220 1088 1373 1308 1484 1196 999 1365
0 0 0 4 0 0 0 0 22 18 0 2 0 0 0 29 0 71 41 27 51 340 506 882 979 972 1376 1261 1647 1441 1304 1112 960 930 902 992 933 1081 1134 1241 1364 1368 1227 921
0 65 6 7 2 0 0 1 35 27 3 121 58 111 111 107 41 166 641 370 420 624 936 839 969 1116 974 1488 1470 1541 1207 683 571 559 650 414 442 788 977 1252 1173 952 1238 991
44 37 22 24 9 1 4 14 97 57 158 211 130 151 92 57 191 313 200 122 517 702 885 1007 1113 806 1012 1234 1361 1304 1091 757 527 469 405 231 512 486 1006 1134 1429 1252 1166 1481
52 159 101 130 127 56 175 184 171 562 140 72 30 55 332 309 398 469 570 688 704 768 988 1273 1062 1159 1365 1317 1263 1051 769 636 358 275 117 50 177 886 905 1242 1197 1283 822 505
13 66 34 89 37 241 78 202 198 121 216 87 121 94 125 347 284 131 62 717 867 948 1017 1229 1010 1152 1418 1209 933 604 366 226 136 30 1 23 163 557 1133 955 968 1006 902 394
24 42 47 90 37 144 179 37 125 108 31 86 68 153 207 406 322 568 766 906 1035 1167 1278 952 964 1186 1302 752 530 403 103 10 7 17 23 62 115 431 533 895 539 794 286 471
0 98 12 26 185 348 31 65 49 46 63 37 78 102 62 362 138 142 922 514 821 1328 1304 1074 1355 1239 1122 506 316 36 21 20 40 0 9 70 147 472 649 94 0 48 5 71
13 34 25 37 157 149 46 17 7 3 39 110 109 207 404 161 492 755 844 773 1237 868 839 811 961 960 602 450 139 110 23 41 58 1 46 64 71 173 290 379 22 6 0 0
CIN
-0 -0 -0 -0 -0 -0 -0 -0 -0 -0 -0 -0 -0 -0 -0 -0 -0 -0 -0 -11 -0 -1 -4 -13 -3 -1 -1 -7 -19 -7 -6 -13 -5 -2 -2 -1 -9 -12 -19 -10 -7 -39 -19 -8
-0 -0 -0 -0 -0 -0 -0 -0 -0 -0 -0 -0 -0 -0 -0 -0 -0 -0 -0 -7 -1 -2 -7 -13 -2 -1 -1 -6 -13 -10 -4 -7 -6 -5 -4 -3 -6 -4 -15 -18 -17 -16 -12 -12
-0 -0 -0 -0 -0 -0 -0 -0 -0 -0 -0 -0 -0 -0 -0 -0 -0 -0 -111 -42 -11 -1 -0 -11 -6 -0 -2 -23 -14 -7 -4 -3 -7 -2 -4 -5 -13 -11 -9 -9 -43 -51 -20 -24
-0 -0 -0 -0 -0 -0 -0 -0 -0 -0 -0 -0 -0 -1 -21 -0 -0 -4 -126 -75 -63 -52 -34 -19 -0 -0 -6 -19 -12 -6 -13 -5 -1 -7 -5 -14 -3 -1 -10 -8 -9 -48 -126 -56
-0 -0 -0 -0 -0 -0 -0 -0 -0 -0 -0 -0 -0 -0 -1 -6 -0 -1 -11 -51 -44 -8 -38 -55 -52 -26 -5 -21 -0 -4 -8 -5 -5 -5 -10 -2 -7 -3 -14 -27 -17 -31 -81 -46
-0 -0 -0 -0 -0 -0 -0 -0 -0 -0 -0 -1 -1 -1 -7 -3 -8 -2 -10 -16 -0 -15 -2 -39 -57 -64 -58 -83 -93 -69 -7 -13 -9 -4 -3 -10 -2 -2 -10 -48 -11 -45 -33 -27
-0 -0 -0 -0 -0 -0 -0 -0 -0 -0 -4 -12 -9 -1 -16 -27 -25 -35 -18 -16 -9 -1 -2 -6 -9 -15 -44 -59 -80 -99 -23 -1 -0 -2 -2 -0 -0 -2 -2 -8 -8 -93 -53 -75
-0 -0 -0 -0 -0 -0 -0 -0 -0 -0 -0 -0 -0 -0 -9 -33 -24 -11 -77 -4 -0 -0 -40 -20 -3 -3 -16 -55 -70 -50 -17 -6 -5 -8 -1 -4 -4 -0 -0 -4 -11 -16 -110 -149
-0 -0 -0 -0 -0 -0 -0 -0 -0 -0 -0 -0 -0 -17 -23 -50 -40 -0 -0 -0 -0 -39 -22 -11 -13 -2 -3 -11 -14 -44 -2 -3 -2 -1 -1 -2 -4 -3 -1 -3 -6 -18 -51 -65
-0 -0 -0 -0 -0 -0 -0 -0 -0 -0 -0 -1 -2 -6 -16 -18 -9 -1 -0 -1 -8 -0 -0 -14 -11 -2 -1 -2 -1 -3 -2 -2 -1 -1 -2 -3 -2 -2 -3 -4 -2 -3 -17 -27
-0 -0 -0 -0 -0 -0 -0 -0 -0 -0 -0 -0 -0 -3 -5 -31 -3 -1 -0 -0 -0 -0 -4 -10 -4 -1 -5 -2 -1 -2 -2 -2 -2 -3 -2 -2 -1 -1 -1 -2 -2 -2 -6 -7
-0 -0 -0 -0 -1 -0 -0 -0 -0 -0 -0 -0 -2 -0 -37 -0 -0 -0 -0 -0 -0 -56 -48 -14 -2 -2 -0 -2 -1 -2 -3 -2 -4 -3 -4 -2 -2 -2 -1 -2 -3 -2 -1 -4
-0 -0 -0 -0 -0 -0 -0 -0 -0 -0 -0 -0 -0 -0 -0 -5 -1 -2 -0 -0 -23 -18 -21 -8 -1 -2 -2 -1 -2 -1 -2 -3 -6 -4 -3 -3 -3 -1 -3 -3 -3 -3 -9 -0
-0 -0 -0 -0 -0 -0 -0 -1 -0 -0 -0 -0 -0 -1 -5 -7 -0 -17 -0 -46 -51 -20 -6 -5 -3 -5 -2 -2 -3 -4 -4 -8 -10 -24 -49 -21 -7 -3 -2 -4 -3 -1 -3 -2
-0 -0 -0 -0 -0 -0 -0 -0 -0 -0 -0 -0 -0 -0 -0 -6 -13 -0 -115 -86 -64 -1 -15 -2 -3 -6 -2 -2 -4 -3 -2 -3 -9 -0 -11 -31 -5 -14 -5 -3 -0 -0 -0 -0
-0 -0 -0 -0 -0 -0 -0 -0 -0 -0 -0 -0 -0 -0 -0 -13 -18 -47 -59 -53 -8 -8 -43 -14 -7 -6 -6 -6 -1 -1 -2 -4 -2 -1 -0 -0 -3 -1 -2 -1 -0 -0 -0 -0
-2 -0 -0 -0 -0 -0 -0 -0 -0 -0 -0 -0 -0 -0 -4 -14 -17 -6 -0 -0 -44 -26 -15 -2 -3 -4 -3 -3 -4 -2 -5 -3 -1 -1 -0 -0 -1 -1 -1 -0 -0 -0 -0 -0
-0 -0 -0 -0 -0 -0 -0 -0 -0 -0 -0 -0 -0 -0 -0 -14 -0 -0 -8 -22 -23 -21 -3 -6 -1 -3 -2 -1 -3 -6 -14 -1 -0 -1 -0 -1 -6 -6 -1 -1 -0 -0 -2 -0
-0 -0 -0 -0 -0 -0 -0 -0 -5 -4 -0 -3 -0 -0 -0 -14 -0 -8 -48 -26 -51 -1 -1 -2 -2 -4 -3 -8 -11 -6 -6 -3 -0 -0 -0 -3 -2 -0 -2 -0 -0 -0 -0 -0
-0 -1 -0 -0 -0 -0 -0 -0 -12 -18 -5 -17 -24 -16 -30 -20 -7 -4 -35 -18 -1 -1 -3 -5 -2 -1 -5 -2 -2 -0 -0 -1 -0 -0 -1 -20 -17 -3 -2 -1 -1 -9 -2 -5
-0 -1 -1 -1 -0 -0 -1 -1 -8 -0 -7 -25 -24 -38 -50 -30 -22 -27 -32 -62 -0 -2 -3 -3 -4 -10 -11 -3 -6 -0 -0 -0 -0 -7 -13 -26 -13 -19 -3 -3 -0 -1 -2 -1
-0 -1 -0 -0 -0 -5 -7 -2 -2 -11 -0 -7 -29 -21 -25 -11 -2 -2 -3 -1 -0 -1 -1 -2 -7 -8 -0 -0 -0 -1 -0 -1 -8 -13 -37 -33 -19 -1 -3 -1 -5 -1 -1 -30
-0 -0 -1 -6 -3 -19 -14 -14 -23 -24 -0 -7 -3 -1 -8 -1 -29 -99 -145 -2 -0 -0 -4 -5 -11 -4 -0 -0 -8 -1 -0 -12 -29 -59 -3 -47 -23 -13 -4 -8 -11 -5 -1 -7
-2 -33 -2 -20 -4 -15 -3 -7 -9 -61 -44 -12 -19 -6 -11 -2 -47 -3 -31 -0 -2 -1 -1 -4 -2 -0 -0 -7 -3 -0 -11 -25 -19 -33 -28 -31 -40 -24 -19 -12 -20 -14 -20 -4
-0 -6 -1 -8 -10 -12 -34 -26 -28 -10 -1 -10 -7 -3 -15 -40 -45 -100 -7 -105 -27 -0 -1 -3 -0 -0 -0 -19 -6 -0 -58 -13 -9 -0 -7 -40 -29 -33 -13 -63 -0 -73 -11 -16
-1 -2 -0 -1 -10 -5 -6 -11 -38 -14 -41 -25 -26 -18 -7 -61 -8 -3 -5 -31 -5 -15 -21 -24 -0 -0 -2 -2 -2 -5 -74 -50 -17 -0 -21 -34 -28 -11 -24 -36 -4 -1 -0 -0
Wind_Speed
nan nan nan nan nan nan nan nan nan nan nan nan nan nan nan nan nan nan nan nan 21 22 28 24 21 25 27 23 23 23 25 25 22 19 16 13 11 11 6 3 7 16 10 11
nan nan nan nan nan nan nan nan nan nan nan nan nan nan nan nan nan nan nan 20 26 23 30 22 21 23 30 27 24 25 25 28 24 20 20 20 23 15 15 11 10 15 14 12
nan nan nan nan nan nan nan nan nan nan nan nan nan nan nan nan nan nan nan 20 23 25 26 25 20 23 27 32 28 26 24 25 28 24 22 23 22 21 19 19 16 20 21 16
nan nan nan nan nan nan nan nan nan nan nan nan nan nan nan nan nan nan nan 26 23 26 27 24 23 20 23 33 28 29 28 26 29 29 28 25 22 25 27 20 26 16 22 21
nan nan nan nan nan nan nan nan nan nan nan nan nan nan nan nan nan nan nan nan nan 29 30 30 30 25 26 25 26 31 31 31 34 37 34 31 27 26 26 26 23 23 19 22
nan nan nan nan nan nan nan nan nan nan nan nan nan nan nan nan nan nan nan nan nan nan 35 32 31 30 30 29 27 31 32 30 33 33 36 34 33 35 32 26 31 31 31 22
nan nan nan nan nan nan nan nan nan nan nan nan nan nan 28 nan nan nan nan nan nan nan 40 33 31 32 31 34 34 32 34 32 33 35 38 39 34 36 36 32 29 38 40 32
nan nan nan nan nan nan nan nan nan nan nan nan nan nan 27 nan nan nan nan nan nan nan nan nan 29 30 31 32 35 37 40 38 37 36 40 41 37 39 39 30 32 38 44 38
nan nan nan nan nan nan nan nan nan nan nan nan nan nan nan nan nan nan nan nan nan nan nan nan nan 25 26 28 30 32 37 40 40 40 42 41 41 43 39 36 40 38 47 40
nan nan nan nan nan nan nan nan nan nan nan nan nan nan 31 nan nan nan nan nan nan nan nan nan 22 25 24 22 24 31 37 40 42 43 45 40 36 37 39 42 40 46 36 30
nan nan nan nan nan nan nan nan nan nan nan nan nan nan 32 nan nan nan nan nan nan nan nan nan 25 26 27 22 24 28 30 35 42 45 45 45 39 34 35 38 39 39 43 36
nan nan nan nan nan nan nan nan nan nan nan nan nan nan nan nan nan nan nan nan nan nan 30 30 28 27 28 29 30 31 33 38 42 44 46 42 38 34 33 34 35 36 39 37
nan nan nan nan nan nan nan nan nan nan nan nan nan nan nan nan nan nan nan nan 38 37 30 30 31 30 31 29 31 33 34 39 40 39 40 38 35 34 30 36 35 37 38 33
nan nan nan nan nan nan nan nan nan nan nan nan nan nan nan nan nan nan nan nan nan 34 35 34 34 32 32 33 32 35 39 36 36 36 35 36 29 29 32 35 33 36 36 34
nan nan nan nan nan nan nan nan nan nan nan nan nan nan nan nan nan nan nan nan nan 35 35 33 35 34 34 35 35 35 34 35 34 30 26 31 29 27 32 37 34 34 38 37
nan nan nan nan nan nan nan nan nan nan nan nan nan nan nan nan nan nan nan nan 34 32 nan 32 35 32 32 34 35 37 34 34 33 28 26 26 27 26 27 31 34 31 37 43
nan nan nan nan nan nan nan nan nan nan nan nan nan nan nan nan nan nan nan nan nan nan 32 36 35 33 33 33 31 33 33 32 28 26 26 25 25 26 25 27 32 31 38 44
nan nan nan nan nan nan nan nan nan nan nan nan nan nan nan nan nan nan 46 nan 36 34 35 35 34 34 33 31 29 34 30 27 24 26 27 25 24 27 23 20 23 22 33 41
nan nan nan nan nan nan nan nan nan nan nan nan nan nan nan nan nan nan nan nan nan 38 38 37 35 33 33 32 35 29 27 26 22 24 25 29 26 30 25 29 23 23 21 33
nan nan nan nan nan nan nan nan nan nan nan 53 nan 42 38 36 nan 40 40 37 37 38 40 39 34 34 30 32 31 29 29 27 24 24 27 26 19 23 25 25 22 24 25 28
nan nan nan nan nan nan nan nan nan nan 42 44 40 39 nan nan 41 38 34 37 35 38 37 36 36 34 33 30 33 30 28 26 26 25 25 15 11 19 22 27 22 24 24 27
nan 31 32 28 21 nan 43 30 38 48 45 nan nan nan 42 41 39 36 32 35 37 40 37 37 33 28 26 25 29 27 28 27 26 22 25 nan 16 19 26 30 28 26 29 33
nan nan nan nan nan 45 nan 41 44 41 28 nan 52 nan 37 35 45 41 nan 30 42 41 35 36 28 24 23 23 26 28 33 31 27 nan nan nan 14 20 27 32 27 32 26 24
nan nan nan nan nan 32 37 nan 42 62 nan nan nan 35 31 32 38 36 39 24 36 34 34 31 27 24 18 22 32 30 26 nan nan nan nan nan 11 16 20 25 27 21 16 16
nan nan nan nan 34 33 nan nan nan nan nan nan nan 29 nan 40 39 18 5 40 31 22 33 33 25 20 17 30 35 nan nan nan nan nan nan nan 8 11 16 nan nan nan nan nan
nan nan nan nan 45 46 nan nan nan nan nan 32 30 29 33 35 20 28 40 35 38 31 35 30 20 21 21 27 29 30 nan nan nan nan nan nan nan 15 17 18 nan nan nan nan
Wind_Direction
nan nan nan nan nan nan nan nan nan nan nan nan nan nan nan nan nan nan nan nan 278 285 293 300 288 293 294 296 304 307 310 313 303 303 319 326 345 343 352 315 258 295 294 308
nan nan nan nan nan nan nan nan nan nan nan nan nan nan nan nan nan nan nan 273 298 291 294 292 285 281 287 288 290 298 303 305 314 310 309 314 312 310 314 308 304 305 309 308
nan nan nan nan nan nan nan nan nan nan nan nan nan nan nan nan nan nan nan 273 269 292 299 301 295 274 275 279 285 287 289 292 301 296 288 301 304 290 277 293 303 307 311 315
nan nan nan nan nan nan nan nan nan nan nan nan nan nan nan nan nan nan nan 317 300 299 295 295 298 294 277 275 280 280 287 286 287 288 287 296 303 291 282 296 291 298 322 326
nan nan nan nan nan nan nan nan nan nan nan nan nan nan nan nan nan nan nan nan nan 300 297 295 290 281 266 265 272 273 278 282 284 294 292 292 294 284 275 276 289 279 299 306
nan nan nan nan nan nan nan nan nan nan nan nan nan nan nan nan nan nan nan nan nan nan 297 291 288 293 296 293 277 256 257 272 282 284 288 292 287 285 279 282 281 276 271 272
nan nan nan nan nan nan nan nan nan nan nan nan nan nan 261 nan nan nan nan nan nan nan 306 312 297 293 291 288 285 284 274 263 259 272 271 279 281 279 281 274 269 276 274 270
nan nan nan nan nan nan nan nan nan nan nan nan nan nan 275 nan nan nan nan nan nan nan nan nan 290 293 287 282 284 287 289 287 284 276 273 277 278 274 275 269 261 268 274 275
nan nan nan nan nan nan nan nan nan nan nan nan nan nan nan nan nan nan nan nan nan nan nan nan nan 287 289 287 286 280 283 287 287 285 281 278 281 280 275 275 273 270 269 280
nan nan nan nan nan nan nan nan nan nan nan nan nan nan 275 nan nan nan nan nan nan nan nan nan 280 286 284 278 269 277 280 278 277 277 281 281 277 270 269 268 266 274 270 272
nan nan nan nan nan nan nan nan nan nan nan nan nan nan 268 nan nan nan nan nan nan nan nan nan 270 279 283 285 284 278 276 277 276 275 276 276 277 275 267 265 265 263 267 267
nan nan nan nan nan nan nan nan nan nan nan nan nan nan nan nan nan nan nan nan nan nan 287 285 285 286 297 290 287 283 292 287 286 285 284 284 283 277 272 266 261 256 258 259
nan nan nan nan nan nan nan nan nan nan nan nan nan nan nan nan nan nan nan nan 288 285 282 280 286 291 295 295 290 285 282 277 273 283 285 285 279 270 256 248 247 251 252 250
nan nan nan nan nan nan nan nan nan nan nan nan nan nan nan nan nan nan nan nan nan 289 298 292 291 293 296 300 291 284 283 284 283 279 275 271 264 255 250 250 246 236 245 247
nan nan nan nan nan nan nan nan nan nan nan nan nan nan nan nan nan nan nan nan nan 285 283 286 290 293 300 302 294 284 284 281 279 279 280 270 265 255 251 255 248 235 230 237
nan nan nan nan nan nan nan nan nan nan nan nan nan nan nan nan nan nan nan nan 276 280 nan 286 287 291 295 293 291 285 278 275 283 281 281 275 269 266 259 256 253 238 228 225
nan nan nan nan nan nan nan nan nan nan nan nan nan nan nan nan nan nan nan nan nan nan 295 294 295 298 300 294 291 287 280 277 284 281 281 283 273 267 255 255 256 245 231 226
nan nan nan nan nan nan nan nan nan nan nan nan nan nan nan nan nan nan 283 nan 284 283 288 296 299 300 297 294 293 285 288 287 283 279 286 283 273 257 250 248 252 246 234 235
nan nan nan nan nan nan nan nan nan nan nan nan nan nan nan nan nan nan nan nan nan 296 297 294 293 291 284 278 281 284 292 290 285 277 284 270 257 261 260 241 242 240 242 238
nan nan nan nan nan nan nan nan nan nan nan 277 nan 279 274 273 nan 284 282 283 293 297 294 294 297 288 285 285 287 292 293 289 283 280 282 282 271 239 220 241 243 242 240 245
nan nan nan nan nan nan nan nan nan nan 277 276 279 277 nan nan 297 296 294 298 297 289 287 284 285 283 279 280 285 297 289 287 285 287 274 277 250 221 233 242 236 251 247 245
nan 292 301 313 321 nan 249 250 260 269 280 nan nan nan 298 295 290 287 285 281 285 283 278 277 279 281 278 286 293 287 281 281 280 287 286 nan 232 241 227 217 240 241 249 248
nan nan nan nan nan 266 nan 263 261 280 247 nan 279 nan 283 281 288 290 nan 281 284 282 284 284 279 275 285 290 290 271 271 272 273 nan nan nan 211 249 237 230 227 239 248 240
nan nan nan nan nan 243 260 nan 256 255 nan nan nan 277 273 274 272 257 264 269 288 288 282 278 279 273 279 284 285 282 272 nan nan nan nan nan 171 224 227 237 235 239 247 248
nan nan nan nan 287 263 nan nan nan nan nan nan nan 275 nan 276 279 299 304 282 282 283 282 281 281 276 276 288 283 nan nan nan nan nan nan nan 184 221 226 nan nan nan nan nan
nan nan nan nan 260 275 nan nan nan nan nan 259 264 262 270 279 266 283 282 267 270 278 275 278 278 279 285 286 296 300 nan nan nan nan nan nan nan 206 220 243 nan nan nan nan